Weather History for Weslaco, TX

Change the Weather History Date:

Saturday, March 2, 2013

  Actual Average (KMFE) Record (KMFE)
Temperature  
Mean Temperature 60 °F 68 °F  
Max Temperature 74 °F 78 °F 99 °F (1999)
Min Temperature 45 °F 57 °F 32 °F (1917)
Degree Days  
Heating Degree Days 6 2  
Month to date heating degree days 4  
Since 1 July heating degree days 537  
Cooling Degree Days 0 5  
Month to date cooling degree days 10  
Year to date cooling degree days 169  
Growing Degree Days 10 (Base 50)    
Moisture  
Dew Point 28 °F    
Average Humidity 35    
Maximum Humidity 61    
Minimum Humidity 13    
Precipitation  
Precipitation 0.00 in 0.04 in 0.40 in (2003)
Month to date precipitation 0.08  
Year to date precipitation 2.24  
Sea Level Pressure  
Sea Level Pressure 30.32 in    
Wind  
Wind Speed 8 mph (NNW)    
Max Wind Speed 15 mph    
Max Gust Speed 23 mph    
Visibility 10 miles    
Events      
T = Trace of Precipitation, MM = Missing Value Source: NWS Daily Summary

Daily Weather History Graph

Daily Weather History Graph

Search for Another Location

Airport:

Trip Planner

Search our weather history database for the weather conditions in past years. The results will help you decide how hot, cold, wet, or windy it might be!

Date:

Astronomy

Mar. 02, 2013 Rise Set
Actual Time 6:54 AM CST 6:34 PM CST
Civil Twilight 6:30 AM CST 6:57 PM CST
Nautical Twilight 6:04 AM CST 7:24 PM CST
Astronomical Twilight 5:37 AM CST 7:50 PM CST
Moon 11:38 PM CST (3/2) 9:57 AM CST (3/2)
Length of Visible Light 12h 26m
Length of Day
11h 40m
Waning Gibbous, 74% of the Moon is Illuminated
Mar 2
Waning Gibbous
Mar 4
Last Quarter
Mar 11
New
Mar 19
First Quarter
Mar 27
Full

Hourly Weather History & Observations

Time (CST) Temp. Windchill Dew Point Humidity Pressure Visibility Wind Dir Wind Speed Gust Speed Precip Events Conditions
12:15 AM 55.9 °F - 41.2 °F 58% 30.23 in 10.0 mi SW 9.2 mph - N/A   Clear
12:35 AM 53.6 °F - 40.3 °F 61% 30.26 in 10.0 mi WNW 8.1 mph - N/A   Clear
12:55 AM 55.8 °F - 37.8 °F 51% 30.27 in 10.0 mi West 9.2 mph - N/A   Clear
1:15 AM 56.7 °F - 34.2 °F 43% 30.27 in 10.0 mi WSW 6.9 mph - N/A   Clear
1:35 AM 55.8 °F - 31.3 °F 39% 30.26 in 10.0 mi WSW 6.9 mph - N/A   Clear
1:55 AM 55.2 °F - 28.6 °F 36% 30.26 in 10.0 mi West 6.9 mph - N/A   Clear
2:15 AM 53.6 °F - 27.0 °F 36% 30.26 in 10.0 mi WNW 3.5 mph - N/A   Clear
2:35 AM 53.1 °F - 26.1 °F 35% 30.26 in 10.0 mi West 4.6 mph - N/A   Clear
2:55 AM 51.8 °F - 26.2 °F 37% 30.25 in 10.0 mi West 3.5 mph - N/A   Clear
3:15 AM 51.1 °F - 25.5 °F 37% 30.25 in 10.0 mi West 5.8 mph - N/A   Clear
3:35 AM 50.0 °F - 26.8 °F 41% 30.25 in 10.0 mi West 5.8 mph - N/A   Clear
3:55 AM 48.2 °F - 26.8 °F 43% 30.25 in 10.0 mi WNW 4.6 mph - N/A   Clear
4:15 AM 49.3 °F - 26.8 °F 42% 30.26 in 10.0 mi WNW 4.6 mph - N/A   Clear
4:35 AM 48.2 °F - 27.7 °F 45% 30.26 in 10.0 mi WNW 5.8 mph - N/A   Clear
4:55 AM 46.9 °F - 28.2 °F 48% 30.28 in 10.0 mi NW 6.9 mph - N/A   Clear
5:15 AM 45.1 °F 42.0 °F 28.0 °F 51% 30.29 in 10.0 mi NW 5.8 mph - N/A   Clear
5:35 AM 45.0 °F 40.6 °F 28.4 °F 52% 30.29 in 10.0 mi NW 8.1 mph - N/A   Clear
5:55 AM 46.2 °F 42.2 °F 28.2 °F 50% 30.30 in 10.0 mi NW 8.1 mph - N/A   Clear
6:15 AM 46.9 °F - 28.2 °F 48% 30.32 in 10.0 mi NW 8.1 mph - N/A   Clear
6:35 AM 47.1 °F - 29.3 °F 50% 30.34 in 10.0 mi NW 10.4 mph - N/A   Clear
6:55 AM 47.8 °F - 29.1 °F 48% 30.34 in 10.0 mi NW 9.2 mph - N/A   Clear
7:15 AM 46.6 °F - 29.1 °F 51% 30.35 in 10.0 mi NW 6.9 mph - N/A   Clear
7:35 AM 48.0 °F - 31.3 °F 52% 30.36 in 10.0 mi NW 6.9 mph - N/A   Clear
7:55 AM 49.3 °F - 32.0 °F 51% 30.37 in 10.0 mi NW 8.1 mph - N/A   Clear
8:15 AM 50.9 °F - 34.9 °F 54% 30.38 in 10.0 mi NNW 10.4 mph 16.1 mph N/A   Clear
8:35 AM 53.1 °F - 35.2 °F 51% 30.39 in 10.0 mi North 9.2 mph - N/A   Clear
8:55 AM 55.8 °F - 32.5 °F 41% 30.41 in 10.0 mi North 10.4 mph 16.1 mph N/A   Clear
9:15 AM 58.5 °F - 30.4 °F 34% 30.42 in 10.0 mi NNE 10.4 mph 16.1 mph N/A   Clear
9:35 AM 61.0 °F - 27.7 °F 28% 30.42 in 10.0 mi North 10.4 mph - N/A   Clear
9:55 AM 62.2 °F - 24.6 °F 24% 30.42 in 10.0 mi North 11.5 mph 19.6 mph N/A   Clear
10:15 AM 63.7 °F - 22.5 °F 21% 30.42 in 10.0 mi NNE 15.0 mph 19.6 mph N/A   Clear
10:35 AM 63.7 °F - 22.6 °F 21% 30.42 in 10.0 mi North 11.5 mph 20.7 mph N/A   Clear
10:55 AM 64.6 °F - 22.8 °F 20% 30.42 in 10.0 mi North 12.7 mph 19.6 mph N/A   Clear
11:15 AM 66.6 °F - 24.1 °F 20% 30.42 in 10.0 mi North 9.2 mph 20.7 mph N/A   Clear
11:35 AM 66.4 °F - 21.7 °F 18% 30.41 in 10.0 mi North 12.7 mph 21.9 mph N/A   Clear
11:55 AM 67.3 °F - 21.4 °F 17% 30.40 in 10.0 mi North 8.1 mph 16.1 mph N/A   Clear
12:15 PM 68.7 °F - 21.7 °F 17% 30.39 in 7.0 mi NNW 11.5 mph 17.3 mph N/A   Clear
12:35 PM 69.4 °F - 21.0 °F 16% 30.38 in 10.0 mi North 6.9 mph 18.4 mph N/A   Clear
12:55 PM 70.2 °F - 21.0 °F 16% 30.37 in 10.0 mi North 11.5 mph 17.3 mph N/A   Clear
1:15 PM 70.5 °F - 20.7 °F 15% 30.36 in 10.0 mi NNW 8.1 mph - N/A   Clear
1:35 PM 71.2 °F - 20.8 °F 15% 30.34 in 10.0 mi NNW 12.7 mph 18.4 mph N/A   Clear
1:55 PM 72.0 °F - 20.5 °F 14% 30.33 in 10.0 mi North 12.7 mph 23.0 mph N/A   Clear
2:15 PM 72.5 °F - 20.8 °F 14% 30.32 in 10.0 mi North 8.1 mph 20.7 mph N/A   Clear
2:35 PM 73.6 °F - 20.3 °F 13% 30.31 in 10.0 mi North 13.8 mph 23.0 mph N/A   Clear
2:55 PM 73.0 °F - 20.3 °F 14% 30.30 in 10.0 mi North 9.2 mph 20.7 mph N/A   Clear
3:15 PM 73.6 °F - 20.3 °F 13% 30.29 in 10.0 mi NNW 12.7 mph 20.7 mph N/A   Clear
3:35 PM 73.6 °F - 20.5 °F 14% 30.29 in 10.0 mi North 11.5 mph 20.7 mph N/A   Clear
3:55 PM 73.8 °F - 20.7 °F 14% 30.28 in 10.0 mi NNW 9.2 mph - N/A   Clear
4:15 PM 74.3 °F - 20.3 °F 13% 30.27 in 10.0 mi NNW 12.7 mph 18.4 mph N/A   Clear
4:35 PM 73.2 °F - 20.3 °F 14% 30.26 in 10.0 mi North 10.4 mph 20.7 mph N/A   Clear
4:55 PM 73.2 °F - 20.3 °F 14% 30.26 in 10.0 mi NNW 9.2 mph 17.3 mph N/A   Clear
5:15 PM 73.2 °F - 21.4 °F 14% 30.26 in 10.0 mi North 9.2 mph - N/A   Clear
5:35 PM 72.5 °F - 21.2 °F 15% 30.26 in 10.0 mi North 5.8 mph - N/A   Clear
5:55 PM 71.1 °F - 21.9 °F 16% 30.26 in 10.0 mi NNE 10.4 mph - N/A   Clear
6:15 PM 69.6 °F - 22.5 °F 17% 30.27 in 10.0 mi North 4.6 mph - N/A   Clear
6:35 PM 65.8 °F - 26.4 °F 23% 30.27 in 10.0 mi NNE 5.8 mph - N/A   Clear
6:55 PM 63.1 °F - 32.4 °F 32% 30.28 in 10.0 mi East 10.4 mph 19.6 mph N/A   Clear
7:15 PM 60.8 °F - 33.3 °F 36% 30.29 in 10.0 mi East 9.2 mph - N/A   Clear
7:35 PM 59.4 °F - 35.1 °F 40% 30.30 in 10.0 mi East 6.9 mph - N/A   Clear
7:55 PM 58.3 °F - 34.9 °F 41% 30.30 in 10.0 mi East 8.1 mph 17.3 mph N/A   Clear
8:15 PM 57.2 °F - 34.9 °F 43% 30.31 in 10.0 mi East 8.1 mph - N/A   Clear
8:35 PM 56.8 °F - 34.9 °F 44% 30.31 in 10.0 mi East 8.1 mph - N/A   Clear
8:55 PM 55.8 °F - 34.9 °F 45% 30.32 in 10.0 mi ESE 3.5 mph - N/A   Clear
9:15 PM 55.0 °F - 34.9 °F 47% 30.32 in 10.0 mi ESE 3.5 mph - N/A   Clear
9:35 PM 54.3 °F - 35.6 °F 49% 30.32 in 10.0 mi SE 4.6 mph - N/A   Clear
9:55 PM 52.7 °F - 36.0 °F 53% 30.33 in 10.0 mi SSE 3.5 mph - N/A   Clear
10:15 PM 52.5 °F - 35.8 °F 53% 30.33 in 10.0 mi South 3.5 mph - N/A   Clear
10:35 PM 51.6 °F - 35.6 °F 54% 30.33 in 10.0 mi South 3.5 mph - N/A   Clear
10:55 PM 51.3 °F - 36.1 °F 56% 30.33 in 10.0 mi South 3.5 mph - N/A   Clear
11:15 PM 52.2 °F - 36.5 °F 55% 30.33 in 10.0 mi SSE 3.5 mph - N/A   Clear
11:35 PM 51.1 °F - 36.3 °F 57% 30.33 in 10.0 mi South 4.6 mph - N/A   Clear
11:55 PM 50.4 °F - 36.5 °F 59% 30.33 in 10.0 mi South 4.6 mph - N/A   Clear